Date String (YYYY-MM-DD hh:mm:ss) UTC,Instrument flags,absolute air pressure of the measurement (hPa),sample flow rate (lpm),inlet stack bypass flow (lpm),air temperature of the measurement (°C),ambient temperature measured by the external sensor (°C),aerosol sample conditioner tube jacket temperature (°C),OPC LED temperature (°C),internal box temperature (°C),relative humidity of the measurement (%),span deviation,mass concentration of particles derived from Lorenz-Mie calculation of OPC scattering (μg/m³),mass concentration of particles derived from Lorenz-Mie calculation of OPC scattering (μg/m³),mass concentration of particles derived from Lorenz-Mie calculation of OPC scattering (μg/m³)
DateTimeUTC,F1_M11,P_M11,Q1_M11,Q2_M11,T1_M11,T2_M11,T3_M11,T4_M11,T5_M11,U1_M11,ZSPAN_M11,X0_M11,X2_M11,X1_M11
2023-12-20 10:00:00,SystemResetWarning,0827.5,5.00,000.00,023.5,022.7,000.0,031.9,024.9,14.0,0000.0,0005.53,0002.22,0001.78
2023-12-20 10:01:00,SystemResetWarning,0827.5,5.00,000.00,023.6,022.7,000.0,031.9,024.9,14.0,0000.0,0006.74,0002.30,0001.84
2023-12-20 10:02:00,SystemResetWarning,0827.7,5.00,000.00,023.6,022.7,000.0,031.9,024.9,13.9,0000.0,0007.54,0002.37,0001.89
2023-12-20 10:03:00,SystemResetWarning,0827.7,4.99,000.00,023.6,022.7,000.0,031.9,025.0,13.9,0000.0,0007.80,0002.52,0001.97
2023-12-20 10:04:00,SystemResetWarning,0827.8,5.00,000.00,023.6,022.7,000.0,031.9,025.0,14.0,0000.0,0008.57,0002.72,0002.10
2023-12-20 10:05:00,SystemResetWarning,0828.0,5.00,000.00,023.6,022.8,000.0,031.9,025.0,14.0,0000.0,0008.47,0002.91,0002.24
2023-12-20 10:06:00,SystemResetWarning,0827.9,5.00,000.00,023.6,022.8,000.0,031.9,025.0,14.0,0000.0,0008.49,0003.07,0002.35
2023-12-20 10:07:00,SystemResetWarning,0827.9,5.01,000.00,023.7,022.8,000.0,031.9,025.0,14.0,0000.0,0008.57,0003.14,0002.41
2023-12-20 10:08:00,SystemResetWarning,0827.6,5.00,000.00,023.7,022.8,000.0,031.9,025.1,14.0,0000.0,0008.61,0003.17,0002.49
2023-12-20 10:09:00,SystemResetWarning,0827.9,5.00,000.00,023.7,022.8,000.0,032.0,025.1,14.0,0000.0,0008.74,0003.22,0002.56
2023-12-20 10:10:00,SystemResetWarning,0827.8,5.01,000.00,023.7,022.8,000.0,032.0,025.1,14.0,0000.0,0008.47,0003.27,0002.61
2023-12-20 10:11:00,SystemResetWarning,0827.9,5.00,000.00,023.7,022.8,000.0,032.0,025.1,14.0,0000.0,0008.49,0003.31,0002.65
2023-12-20 10:12:00,SystemResetWarning,0827.5,5.00,000.00,023.7,022.8,000.0,032.0,025.0,13.9,0000.0,0007.88,0003.34,0002.72
2023-12-20 10:13:00,SystemResetWarning,0827.4,5.00,000.00,023.7,022.8,000.0,032.0,025.0,13.9,0000.0,0007.76,0003.36,0002.77
2023-12-20 10:14:00,SystemResetWarning,0827.4,5.01,000.00,023.7,022.8,000.0,032.0,025.0,13.9,0000.0,0007.85,0003.35,0002.78
2023-12-20 10:15:00,SystemResetWarning,0827.4,4.99,000.00,023.7,022.9,000.0,032.0,024.9,13.9,0000.0,0007.10,0003.30,0002.75
2023-12-20 10:16:00,SystemResetWarning,0827.4,4.99,000.00,023.7,022.9,000.0,032.0,024.9,13.9,0000.0,0007.29,0003.29,0002.69
2023-12-20 10:17:00,SystemResetWarning,0827.4,4.99,000.00,023.6,022.8,000.0,032.0,024.9,13.8,0000.0,0007.44,0003.26,0002.63
2023-12-20 10:18:00,SystemResetWarning,0827.4,5.00,000.00,023.6,022.8,000.0,032.0,024.8,13.8,0000.0,0007.49,0003.25,0002.60
2023-12-20 10:19:00,SystemResetWarning,0827.4,5.01,000.00,023.6,022.8,000.0,032.0,024.8,13.9,0000.0,0007.45,0003.22,0002.56
2023-12-20 10:20:00,SystemResetWarning,0827.4,5.01,000.00,023.6,022.8,000.0,032.0,024.8,13.9,0000.0,0007.39,0003.20,0002.54
2023-12-20 10:21:00,SystemResetWarning,0827.4,5.01,000.00,023.6,022.8,000.0,032.0,024.8,14.0,0000.0,0007.31,0003.17,0002.51
2023-12-20 10:22:00,SystemResetWarning,0827.4,5.00,000.00,023.6,022.8,000.0,032.0,024.8,14.0,0000.0,0006.75,0003.11,0002.44
2023-12-20 10:23:00,SystemResetWarning,0827.4,4.99,000.00,023.5,022.8,000.0,031.9,024.8,14.0,0000.0,0006.68,0003.06,0002.34
2023-12-20 10:24:00,SystemResetWarning,0827.4,4.99,000.00,023.5,022.8,000.0,031.9,024.8,14.1,0000.0,0005.95,0002.99,0002.28
2023-12-20 10:25:00,SystemResetWarning,0827.4,5.00,000.00,023.5,022.8,000.0,031.9,024.8,14.0,0000.0,0005.71,0002.94,0002.24
2023-12-20 10:26:00,SystemResetWarning,0827.4,5.00,000.00,023.5,022.7,000.0,031.9,024.7,14.0,0000.0,0005.42,0002.88,0002.20
2023-12-20 10:27:00,SystemResetWarning,0827.4,5.01,000.00,023.5,022.7,000.0,031.9,024.7,14.0,0000.0,0004.88,0002.76,0002.17
2023-12-20 10:28:00,SystemResetWarning,0827.4,5.00,000.00,023.5,022.7,000.0,031.9,024.7,14.0,0000.0,0004.42,0002.68,0002.14
2023-12-20 10:29:00,SystemResetWarning,0827.4,5.00,000.00,023.5,022.7,000.0,031.9,024.7,14.0,0000.0,0004.29,0002.66,0002.13
2023-12-20 10:30:00,SystemResetWarning,0827.4,5.00,000.00,023.4,022.6,000.0,031.9,024.6,14.0,0000.0,0004.77,0002.69,0002.14
2023-12-20 10:31:00,SystemResetWarning,0827.4,5.00,000.00,023.4,022.6,000.0,031.9,024.6,14.0,0000.0,0005.29,0002.69,0002.13
2023-12-20 10:32:00,SystemResetWarning,0827.3,5.00,000.00,023.4,022.6,000.0,031.9,024.5,14.0,0000.0,0005.03,0002.69,0002.12
2023-12-20 10:33:00,SystemResetWarning,0827.4,4.99,000.00,023.4,022.6,000.0,031.8,024.5,14.0,0000.0,0004.94,0002.70,0002.16
2023-12-20 10:34:00,SystemResetWarning,0827.4,5.00,000.00,023.3,022.6,000.0,031.8,024.5,13.9,0000.0,0004.90,0002.69,0002.19
2023-12-20 10:35:00,SystemResetWarning,0827.4,5.00,000.00,023.3,022.6,000.0,031.8,024.5,13.9,0000.0,0004.91,0002.72,0002.21
2023-12-20 10:36:00,SystemResetWarning,0827.4,5.00,000.00,023.3,022.5,000.0,031.8,024.5,14.0,0000.0,0005.46,0002.77,0002.23
2023-12-20 10:37:00,SystemResetWarning,0827.4,5.00,000.00,023.3,022.5,000.0,031.8,024.5,14.0,0000.0,0005.89,0002.80,0002.23
2023-12-20 10:38:00,SystemResetWarning,0827.4,5.00,000.00,023.3,022.5,000.0,031.8,024.6,14.0,0000.0,0006.01,0002.83,0002.25
2023-12-20 10:39:00,SystemResetWarning,0827.4,5.00,000.00,023.3,022.5,000.0,031.8,024.6,14.0,0000.0,0006.27,0002.93,0002.29
2023-12-20 10:40:00,SystemResetWarning,0827.4,5.01,000.00,023.3,022.5,000.0,031.8,024.6,14.1,0000.0,0006.33,0002.95,0002.31
2023-12-20 10:41:00,SystemResetWarning,0827.4,5.00,000.00,023.3,022.5,000.0,031.7,024.5,14.2,0000.0,0005.98,0002.90,0002.30
2023-12-20 10:42:00,SystemResetWarning,0827.4,5.00,000.00,023.3,022.5,000.0,031.7,024.5,14.2,0000.0,0005.43,0002.88,0002.29
2023-12-20 10:43:00,SystemResetWarning,0827.4,5.00,000.00,023.3,022.5,000.0,031.7,024.5,14.2,0000.0,0005.53,0002.87,0002.29
2023-12-20 10:44:00,SystemResetWarning,0827.4,4.98,000.00,023.3,022.5,000.0,031.7,024.5,14.2,0000.0,0005.78,0002.90,0002.29
2023-12-20 10:45:00,SystemResetWarning,0827.4,5.00,000.00,023.3,022.5,000.0,031.7,024.5,14.1,0000.0,0005.87,0002.92,0002.28
2023-12-20 10:46:00,SystemResetWarning,0827.4,5.01,000.00,023.2,022.5,000.0,031.7,024.5,14.0,0000.0,0006.26,0002.95,0002.28
2023-12-20 10:47:00,SystemResetWarning,0827.4,5.01,000.00,023.2,022.5,000.0,031.7,024.5,14.0,0000.0,0005.58,0002.91,0002.28
2023-12-20 10:48:00,SystemResetWarning,0827.3,5.00,000.00,023.2,022.5,000.0,031.7,024.5,14.0,0000.0,0005.18,0002.85,0002.27
2023-12-20 10:49:00,SystemResetWarning,0827.4,4.99,000.00,023.2,022.5,000.0,031.7,024.4,14.0,0000.0,0005.01,0002.81,0002.25
2023-12-20 10:50:00,SystemResetWarning,0827.4,4.99,000.00,023.2,022.5,000.0,031.7,024.4,14.1,0000.0,0004.81,0002.74,0002.22
2023-12-20 10:51:00,SystemResetWarning,0827.4,5.00,000.00,023.2,022.5,000.0,031.7,024.4,14.1,0000.0,0005.24,0002.72,0002.21
2023-12-20 10:52:00,SystemResetWarning,0827.4,5.01,000.00,023.2,022.4,000.0,031.6,024.4,14.2,0000.0,0006.07,0002.74,0002.23
2023-12-20 10:53:00,SystemResetWarning,0827.4,5.00,000.00,023.2,022.4,000.0,031.6,024.4,14.1,0000.0,0005.98,0002.76,0002.26
2023-12-20 10:54:00,SystemResetWarning,0827.4,5.00,000.00,023.2,022.4,000.0,031.6,024.4,14.1,0000.0,0005.89,0002.78,0002.29
2023-12-20 10:55:00,SystemResetWarning,0827.4,4.99,000.00,023.2,022.4,000.0,031.6,024.4,14.1,0000.0,0005.58,0002.74,0002.31
2023-12-20 10:56:00,SystemResetWarning,0827.4,5.00,000.00,023.2,022.4,000.0,031.6,024.4,14.1,0000.0,0006.10,0002.81,0002.35
2023-12-20 10:57:00,SystemResetWarning,0827.4,5.00,000.00,023.2,022.4,000.0,031.6,024.5,14.1,0000.0,0006.72,0002.92,0002.41
2023-12-20 10:58:00,SystemResetWarning,0827.4,5.01,000.00,023.2,022.4,000.0,031.6,024.4,14.1,0000.0,0006.93,0003.03,0002.48
2023-12-20 10:59:00,SystemResetWarning,0827.4,5.00,000.00,023.2,022.4,000.0,031.6,024.5,14.1,0000.0,0007.48,0003.18,0002.57
